Volver al catálogo

STARLINK-4101

ActivoComunicacionesVLEO
NORAD 53142·PAYLOAD·🇺🇸 United States

Lanzado Jul 17, 2022 desde Cape Canaveral Space Force Station

Loading…

Próximos Pases (próximas 24 horas)

TLE

ActualizadoSource: CelesTrak SupGP

Época: Sep 14, 2026, 21:36 UTC

1 53142C 22083L   26257.90048611 -.00007997  00000+0 -23630-3 0  2578
2 53142  53.1603  30.2375 0001098  76.3715 177.1990 15.34391674    10

Sigue STARLINK-4101 en tiempo real con AllMySat

Download on the App Store